"Time","Temp","Dewpoint","Humidity","Pressure","Direction","Speed","Gust","Precip","PrecipRate"
"00:04:59","73.2","69.4","88","29.98","123","0.8","2.4","0.00","0.00"
"00:09:57","73.2","69.4","88","29.98","106","0.2","2.4","0.00","0.00"
"00:14:56","73.2","69.4","88","29.98","78","0.2","2.4","0.00","0.00"
"00:19:56","73.1","69.3","88","29.98","78","0.1","1.2","0.00","0.00"
"00:24:56","73.1","69.3","88","29.98","78","0","0","0.00","0.00"
"00:29:56","73","69.2","88","29.98","78","0","1.2","0.00","0.00"
"00:34:56","73","69.2","88","29.97","78","0.2","1.2","0.00","0.00"
"00:39:58","73","69.2","88","29.97","78","0","1.2","0.00","0.00"
"00:44:58","73","69.2","88","29.97","78","0","1.2","0.00","0.00"
"00:49:58","73","69.2","88","29.97","78","0","0","0.00","0.00"
"00:54:59","73","69.2","88","29.97","78","0.1","2.4","0.00","0.00"
"00:59:59","73","69.2","88","29.97","78","0.3","2.3","0.00","0.00"
"01:04:59","73","69.2","88","29.97","78","0.1","1.2","0.00","0.00"
"01:09:58","73","69.2","88","29.97","78","0.1","1.2","0.00","0.00"
"01:14:59","73","69.2","88","29.98","78","0","0","0.00","0.00"
"01:19:56","73","69.2","88","29.98","78","0","0","0.00","0.00"
"01:24:59","73","69.2","88","29.98","78","0","1.2","0.00","0.00"
"01:29:59","73","69.2","88","29.98","78","0","1.2","0.00","0.00"
"01:34:59","73","69.2","88","29.97","78","0","1.2","0.00","0.00"
"01:39:56","73","69.6","89","29.97","78","0","1.2","0.00","0.00"
"01:44:56","73","69.6","89","29.97","78","0","0","0.00","0.00"
"01:49:56","72.9","69.5","89","29.97","78","0","0","0.00","0.00"
"01:54:56","72.9","69.5","89","29.97","78","0","1.2","0.00","0.00"
"01:59:56","72.9","69.5","89","29.97","78","0","1.2","0.00","0.00"
"02:04:56","72.9","69.5","89","29.96","78","0.1","1.2","0.00","0.00"
"02:09:59","72.8","69.4","89","29.96","78","0","1.2","0.00","0.00"
"02:14:59","72.8","69.6","89.7","29.96","78","0","1.2","0.00","0.00"
"02:19:59","72.8","69.7","90","29.95","78","0.1","1.2","0.00","0.00"
"02:24:57","72.7","69.6","90","29.95","78","0","1.2","0.00","0.00"
"02:29:57","72.7","69.6","90","29.95","78","0","0","0.00","0.00"
"02:34:57","72.6","69.5","90","29.94","78","0","0","0.00","0.00"
"02:39:58","72.6","69.5","90","29.94","78","0","0","0.00","0.00"
"02:44:58","72.6","69.5","90","29.94","78","0","0","0.00","0.00"
"02:49:58","72.5","69.4","90","29.94","78","0","0","0.00","0.00"
"02:54:59","72.5","69.4","90","29.94","78","0","0","0.00","0.00"
"02:59:59","72.5","69.4","90","29.94","78","0","0","0.00","0.00"
"03:04:56","72.5","69.4","90","29.94","78","0","0","0.00","0.00"
"03:09:59","72.5","69.4","90","29.94","78","0","0","0.00","0.00"
"03:14:56","72.5","69.4","90","29.94","78","0","0","0.00","0.00"
"03:19:56","72.5","69.4","90","29.94","78","0","0","0.00","0.00"
"03:24:56","72.5","69.4","90","29.94","78","0","1.2","0.00","0.00"
"03:29:56","72.5","69.5","90.3","29.94","78","0","0","0.00","0.00"
"03:34:56","72.5","69.7","91","29.93","76","0.2","2.4","0.00","0.00"
"03:39:58","72.4","69.6","91","29.93","76","0","0","0.00","0.00"
"03:44:56","72.4","69.6","91","29.94","76","0","0","0.00","0.00"
"03:49:56","72.4","69.6","91","29.94","76","0","0","0.00","0.00"
"03:54:57","72.4","69.6","91","29.94","13","0.1","2.4","0.00","0.00"
"03:59:59","72.4","69.6","91","29.94","12","0","1.2","0.00","0.00"
"04:04:56","72.3","69.5","91","29.93","12","0","1.2","0.00","0.00"
"04:09:59","72.3","69.6","91.4","29.93","12","0","1.2","0.00","0.00"
"04:14:56","72.2","69.7","92","29.93","12","0.2","2.4","0.00","0.00"
"04:19:57","72.1","69.6","92","29.93","12","0.1","1.2","0.00","0.00"
"04:24:57","72","69.5","92","29.93","12","0.5","2.4","0.00","0.00"
"04:29:58","71.9","69.5","92.3","29.93","12","0.1","2.3","0.00","0.00"
"04:34:58","71.7","69.6","93","29.93","11","0.4","3.6","0.00","0.00"
"04:39:59","71.6","69.5","93","29.93","11","1","3.6","0.00","0.00"
"04:44:59","71.5","69.6","93.8","29.93","11","0.1","1.2","0.00","0.00"
"04:49:56","71.4","69.6","94","29.93","11","0","0","0.00","0.00"
"04:54:56","71.3","69.5","94","29.93","11","0","0","0.00","0.00"
"04:59:56","71.2","69.4","94","29.93","11","0","0","0.00","0.00"
"05:04:56","71.1","69.4","94.4","29.93","11","0.2","1.2","0.00","0.00"
"05:09:59","71","69.5","95","29.93","11","0.5","2.4","0.00","0.00"
"05:14:56","71","69.5","95","29.93","11","0.9","2.4","0.00","0.00"
"05:19:56","70.9","69.4","95","29.92","11","0.7","3.6","0.00","0.00"
"05:24:59","70.9","69.4","95","29.92","9","0.7","4.8","0.00","0.00"
"05:29:56","70.8","69.3","95","29.92","9","0.2","2.3","0.00","0.00"
"05:34:56","70.7","69.2","95","29.92","9","0.1","2.4","0.00","0.00"
"05:39:57","70.7","69.2","95.1","29.92","9","0.3","2.4","0.00","0.00"
"05:44:57","70.6","69.4","96","29.92","9","0.4","3.6","0.00","0.00"
"05:49:57","70.6","69.4","96","29.92","9","0.3","3.6","0.00","0.00"
"05:54:57","70.5","69.3","96","29.92","9","0.8","4.8","0.00","0.00"
"05:59:57","70.4","69.2","96","29.93","9","0.1","2.3","0.00","0.00"
"06:04:57","70.4","69.2","96","29.93","9","0","1.2","0.00","0.00"
"06:09:57","70.4","69.2","96","29.93","9","0.3","2.4","0.00","0.00"
"06:14:59","70.3","69.1","96","29.93","9","0.1","1.2","0.00","0.00"
"06:19:59","70.2","69","96","29.92","9","0","0","0.00","0.00"
"06:24:59","70.2","69","96","29.92","9","0.1","1.2","0.00","0.00"
"06:29:58","70.1","68.9","96","29.92","9","0","1.2","0.00","0.00"
"06:34:57","70.1","68.9","96","29.92","58","0.4","2.4","0.00","0.00"
"06:39:59","70.1","68.9","96","29.92","87","0.3","1.2","0.00","0.00"
"06:44:56","70.1","68.9","96","29.93","87","0.1","2.4","0.00","0.00"
"06:49:56","70.1","68.9","96","29.93","86","0.4","3.6","0.00","0.00"
"06:54:56","70.1","68.9","96","29.93","86","0.6","3.5","0.00","0.00"
"06:59:56","70.1","68.9","96","29.93","82","0.3","3.6","0.00","0.00"
"07:04:56","70.1","69","96.4","29.93","80","0.5","3.5","0.00","0.00"
"07:09:59","70.2","69.3","97","29.93","80","0.2","1.2","0.00","0.00"
"07:14:56","70.2","69.3","97","29.94","80","0.3","2.4","0.00","0.00"
"07:19:56","70.2","69.3","97","29.94","80","0.5","2.4","0.00","0.00"
"07:24:59","70.2","69.3","97","29.94","80","0","0","0.00","0.00"
"07:29:59","70.2","69.3","97","29.94","80","0","0","0.00","0.00"
"07:34:58","70.3","69.4","97","29.94","80","0","0","0.00","0.00"
"07:39:59","70.3","69.4","97","29.94","80","0","0","0.00","0.00"
"07:44:58","70.3","69.4","97","29.94","80","0.2","2.4","0.00","0.00"
"07:49:58","70.4","69.5","97","29.94","80","0.2","1.2","0.00","0.00"
"07:54:57","70.4","69.5","97","29.94","80","0.1","1.2","0.00","0.00"
"07:59:57","70.4","69.5","97","29.94","73","0.2","2.4","0.00","0.00"
"08:04:57","70.4","69.5","97","29.94","73","0","1.2","0.00","0.00"
"08:09:56","70.5","69.6","97","29.94","73","0","0","0.00","0.00"
"08:14:56","70.5","69.6","97","29.94","73","0","0","0.00","0.00"
"08:19:56","70.6","69.7","97","29.94","73","0.5","2.4","0.00","0.00"
"08:24:58","70.7","69.8","97","29.94","73","0.3","2.4","0.00","0.00"
"08:29:56","70.8","69.9","97","29.94","73","0","0","0.00","0.00"
"08:34:58","70.9","70","97","29.94","73","0","0","0.00","0.00"
"08:39:56","71","70.1","97","29.94","73","0","0","0.00","0.00"
"08:44:59","71.1","70.2","97","29.94","73","0","0","0.00","0.00"
"08:49:59","71.2","70.3","97","29.94","73","0","0","0.00","0.00"
"08:54:58","71.3","70.4","97","29.94","73","0","0","0.00","0.00"
"08:59:58","71.4","70.5","97","29.94","73","0","0","0.00","0.00"
"09:04:57","71.5","70.4","96.4","29.94","73","0","0","0.00","0.00"
"09:09:56","71.6","70.6","96.5","29.94","73","0","0","0.00","0.00"
"09:14:56","71.9","70.8","96.6","29.94","73","0","0","0.00","0.00"
"09:19:56","72","70.8","96","29.94","73","0","0","0.00","0.00"
"09:24:59","72.1","70.9","96","29.94","73","0","0","0.00","0.00"
"09:29:58","72.1","70.8","95.5","29.94","73","0","0","0.00","0.00"
"09:34:57","72.2","70.8","95.3","29.94","73","0","0","0.00","0.00"
"09:39:58","72.3","70.8","95","29.94","73","0","0","0.00","0.00"
"09:44:57","72.4","70.9","95","29.94","73","0","0","0.00","0.00"
"09:49:56","72.5","71","95","29.94","73","0","0","0.00","0.00"
"09:54:59","72.6","70.9","94.3","29.94","70","0.4","2.4","0.00","0.00"
"09:59:59","72.8","71","94","29.94","65","1.4","3.6","0.00","0.00"
"10:04:58","72.8","71","94","29.94","63","1.5","3.6","0.00","0.00"
"10:09:57","72.9","71.1","94","29.94","63","1.2","3.6","0.00","0.00"
"10:14:57","73","71.2","94","29.94","62","1.2","3.6","0.00","0.00"
"10:19:57","73.1","71","93.2","29.94","61","0.6","2.4","0.00","0.00"
"10:24:56","73.2","71.1","93","29.94","60","0.5","3.6","0.00","0.00"
"10:29:59","73.3","71.2","93","29.95","60","0.5","3.5","0.00","0.00"
"10:34:58","73.4","70.9","92.1","29.95","55","0.9","3.6","0.00","0.00"
"10:39:59","73.4","70.9","92","29.95","55","0.6","3.5","0.00","0.00"
"10:44:58","73.4","70.9","92","29.95","53","1.1","4.8","0.00","0.00"
"10:49:58","73.5","71.2","92.6","29.95","53","0.2","2.3","0.00","0.00"
"10:54:56","73.5","71","92.1","29.95","21","2.2","6","0.00","0.00"
"10:59:56","73.5","71","92","29.95","17","1.5","3.6","0.00","0.00"
"11:04:59","73.4","70.9","92","29.95","16","1.6","4.8","0.00","0.00"
"11:09:58","73.4","70.9","92","29.95","15","1.6","4.6","0.00","0.00"
"11:14:58","73.5","71","92.2","29.95","9","1.4","6","0.00","0.00"
"11:19:57","73.5","71","92","29.95","10","2.2","4.8","0.00","0.00"
"11:24:56","73.5","71","92","29.95","10","1.1","3.6","0.00","0.00"
"11:29:56","73.5","71","92","29.95","4","1.6","4.8","0.00","0.00"
"11:34:58","73.6","71.1","92","29.95","355","0.9","3.5","0.00","0.00"
"11:39:59","73.6","71.1","92","29.95","353","1.5","3.6","0.00","0.00"
"11:44:58","73.8","71.3","92","29.95","349","1.2","4.8","0.00","0.00"
"11:49:58","74","71.4","91.7","29.95","350","2.5","7.2","0.00","0.00"
"11:54:57","74","71.2","91","29.95","350","1.9","6","0.00","0.00"
"11:59:56","74.1","71.5","91.5","29.95","350","1.2","4.8","0.00","0.00"
"12:04:59","74.3","71.7","91.4","29.95","350","1.3","3.6","0.00","0.00"
"12:09:58","74.5","71.7","91","29.95","350","0.7","4.8","0.00","0.00"
"12:14:59","74.8","72","91","29.95","350","0.4","4.8","0.00","0.00"
"12:19:58","75","72.2","90.8","29.94","350","0.4","4.6","0.00","0.00"
"12:24:58","75.5","72.6","90.5","29.94","350","0.3","2.4","0.00","0.00"
"12:29:57","76","72.5","89.2","29.94","350","0.9","2.4","0.00","0.00"
"12:34:57","76.2","72.7","88.7","29.93","351","0.1","1.2","0.00","0.00"
"12:39:58","76.4","72.7","88.2","29.93","96","1.2","6","0.00","0.00"
"12:44:57","76.6","72.6","87.6","29.93","131","0.7","2.4","0.00","0.00"
"12:49:57","76.6","72.4","87","29.93","87","0.1","3.6","0.00","0.00"
"12:54:57","76.7","72.6","87","29.93","74","0.5","3.5","0.00","0.00"
"12:59:56","77.1","72.9","87","29.93","79","0.5","3.6","0.00","0.00"
"13:04:56","77.2","72.7","86","29.93","86","0.7","3.6","0.00","0.00"
"13:09:59","77.5","72.8","85.7","29.93","93","0.1","1.2","0.00","0.00"
"13:14:56","78.4","73.5","85.2","29.93","19","0.4","3.6","0.00","0.00"
"13:19:57","79.1","73.6","83.3","29.92","19","0.3","2.4","0.00","0.00"
"13:24:58","79.4","73.3","81.6","29.92","19","0.5","2.4","0.00","0.00"
"13:29:58","78.5","72.5","81.9","29.92","19","0","1.2","0.00","0.00"
"13:34:58","77.8","72.2","83","29.92","29","0","0","0.00","0.00"
"13:39:58","78","72.3","82.8","29.92","29","0","0","0.00","0.00"
"13:44:58","78","72.4","82.9","29.92","144","0.8","7.2","0.00","0.00"
"13:49:58","78.5","72.9","82.9","29.92","168","0.6","4.8","0.00","0.00"
"13:54:58","79","73","81.8","29.92","167","0.5","2.4","0.00","0.00"
"13:59:59","79.2","73","81.2","29.92","55","0.5","2.4","0.00","0.00"
"14:04:56","79.3","73","80.9","29.91","51","0.5","3.6","0.00","0.00"
"14:09:57","79.3","73","81","29.91","51","0.1","1.2","0.00","0.00"
"14:14:59","79.7","73.4","81.3","29.91","51","0","1.2","0.00","0.00"
"14:19:56","80.1","73.1","79.4","29.90","129","0.6","4.8","0.00","0.00"
"14:24:57","79.8","72.6","79","29.90","143","1.4","4.6","0.00","0.00"
"14:29:59","80.4","73.6","79.9","29.90","35","0.3","3.6","0.00","0.00"
"14:34:56","81.2","74.1","78.8","29.90","9","0.3","2.4","0.00","0.00"
"14:39:59","81.1","73.3","77.4","29.90","5","0.8","3.6","0.00","0.00"
"14:44:58","80.6","73.2","78.1","29.90","90","1.8","8.4","0.00","0.00"
"14:49:58","79.9","73","79.6","29.89","125","2.1","4.8","0.00","0.00"
"14:54:56","79.3","73","80.9","29.89","107","2","4.8","0.00","0.00"
"14:59:58","79.6","73.5","81.8","29.89","117","1.3","6","0.00","0.00"
"15:04:59","80","73.5","80.6","29.89","120","0.7","2.4","0.00","0.00"
"15:09:59","79.9","73.2","79.9","29.89","120","1.6","3.6","0.00","0.00"
"15:14:57","80.4","73.5","79.6","29.89","119","0.6","2.4","0.00","0.00"
"15:19:58","81","74","79.4","29.87","114","0.4","2.4","0.00","0.00"
"15:24:59","81.4","73.9","78.1","29.87","96","0","0","0.00","0.00"
"15:29:56","81","73.4","77.8","29.87","97","0.8","3.6","0.00","0.00"
"15:34:57","80.6","73","77.8","29.87","98","0.9","2.4","0.00","0.00"
"15:39:59","80.4","72.6","77.2","29.87","98","0.2","2.3","0.00","0.00"
"15:44:59","81","73","76.8","29.87","98","0.1","1.2","0.00","0.00"
"15:49:56","81.7","73.5","76.3","29.86","98","0.9","3.6","0.00","0.00"
"15:54:56","81.6","73.2","75.8","29.86","109","0.8","4.8","0.00","0.00"
"15:59:58","81","72.8","76.4","29.86","127","0.8","4.6","0.00","0.00"
"16:04:59","80.6","72.6","76.8","29.86","127","0.5","2.4","0.00","0.00"
"16:09:56","80.5","72.6","77.1","29.86","127","0","1.2","0.00","0.00"
"16:14:58","80.4","72.4","76.7","29.86","123","0.3","2.4","0.00","0.00"
"16:19:59","80.3","72.4","77","29.86","123","0","0","0.00","0.00"
"16:24:56","80.3","72.8","78","29.86","123","0","0","0.00","0.00"
"16:29:58","80.3","72.6","77.5","29.86","123","0","0","0.00","0.00"
"16:34:59","80.2","72.7","78","29.85","123","0","0","0.00","0.00"
"16:39:57","80.1","72.7","78.3","29.85","123","0","1.2","0.00","0.00"
"16:44:58","80","72.6","78.3","29.85","123","0.5","2.4","0.00","0.00"
"16:49:56","79.9","72.4","78","29.85","123","0.3","1.2","0.00","0.00"
"16:54:57","79.7","72.4","78.3","29.85","123","0","1.2","0.00","0.00"
"16:59:58","79.6","72.3","78.5","29.85","123","0","0","0.00","0.00"
"17:04:56","79.6","72.5","79","29.84","122","0","0","0.00","0.00"
"17:09:56","79.7","72.6","79","29.84","122","0","0","0.00","0.00"
"17:14:58","79.9","72.6","78.6","29.84","122","0","0","0.00","0.00"
"17:19:59","80","72.6","78.2","29.83","123","0.4","2.4","0.00","0.00"
"17:24:56","80.2","73.1","79","29.83","121","0.6","2.3","0.00","0.00"
"17:29:57","80.3","73.3","79.3","29.83","121","0.3","2.4","0.00","0.00"
"17:34:57","80.3","73.6","80","29.83","119","0.2","1.2","0.00","0.00"
"17:39:59","80.4","73.3","79","29.83","117","0.1","2.4","0.00","0.00"
"17:44:56","80.3","73.2","79","29.83","117","0.6","2.4","0.00","0.00"
"17:49:56","80","72.9","79","29.83","117","0.6","2.4","0.00","0.00"
"17:54:56","79.7","73","79.9","29.83","117","0","0","0.00","0.00"
"17:59:57","79.6","73","80.2","29.83","116","0.1","1.2","0.00","0.00"
"18:04:58","79.5","73","80.5","29.83","116","0.1","1.2","0.00","0.00"
"18:09:59","79.4","73.1","81","29.83","116","0.1","2.4","0.00","0.00"
"18:14:58","79.5","73.1","80.9","29.83","116","0.6","2.4","0.00","0.00"
"18:19:59","79.5","72.9","80.3","29.83","116","0","1.2","0.00","0.00"
"18:24:56","79.5","72.8","80.1","29.83","116","0.2","1.2","0.00","0.00"
"18:29:57","79.5","72.8","80","29.83","116","0","0","0.00","0.00"
"18:34:57","79.5","72.7","79.8","29.83","116","0.5","2.4","0.00","0.00"
"18:39:59","79.4","72.5","79.5","29.83","116","0.2","2.3","0.00","0.00"
"18:44:56","79.3","72.5","79.8","29.83","116","0.7","2.4","0.00","0.00"
"18:49:56","79.1","72.3","79.7","29.83","116","0.3","2.4","0.00","0.00"
"18:54:57","79","72.2","79.7","29.83","117","0","0","0.00","0.00"
"18:59:56","78.9","72.1","79.6","29.83","117","0.3","2.4","0.00","0.00"
"19:04:57","78.8","72.1","80","29.82","117","1","3.6","0.00","0.00"
"19:09:56","78.7","72","80","29.82","117","0.5","4.8","0.00","0.00"
"19:14:56","78.7","72","80","29.82","119","1.2","4.8","0.00","0.00"
"19:19:56","78.6","72","80.2","29.81","120","1.4","3.6","0.00","0.00"
"19:24:59","78.5","72.2","81","29.81","122","1.4","4.8","0.00","0.00"
"19:29:59","78.4","72.1","81","29.81","123","0.3","3.5","0.00","0.00"
"19:34:58","78.3","72","81","29.81","123","0.5","4.8","0.00","0.00"
"19:39:58","78.1","72","81.6","29.81","141","1.1","6","0.00","0.00"
"19:44:58","78","72.1","82","29.81","185","1.1","5.8","0.00","0.00"
"19:49:57","77.8","71.9","82","29.81","185","0.5","2.4","0.00","0.00"
"19:54:57","77.8","72.2","83","29.81","185","0.7","3.6","0.00","0.00"
"19:59:57","77.7","72.1","83","29.81","179","1.2","4.8","0.00","0.00"
"20:04:56","77.6","72.1","83.2","29.81","166","1.2","4.6","0.00","0.00"
"20:09:55","77.5","72.3","84","29.81","166","0.9","3.6","0.00","0.00"
"20:14:56","77.4","72.2","84","29.82","168","1.4","4.8","0.00","0.00"
"20:19:56","77.3","72.1","84","29.82","167","0.9","3.6","0.00","0.00"
"20:24:59","77.2","72","84","29.82","167","0.9","3.6","0.00","0.00"
"20:29:58","77.1","72.1","84.7","29.83","167","1.4","4.8","0.00","0.00"
"20:34:58","76.9","72","85","29.83","167","0.6","2.4","0.00","0.00"
"20:39:58","76.8","71.9","85","29.83","167","0","0","0.00","0.00"
"20:44:58","76.7","71.9","85.4","29.84","167","0","0","0.00","0.00"
"20:49:58","76.6","72.1","86","29.84","167","0","0","0.00","0.00"
"20:54:58","76.6","72.1","86","29.84","167","0","0","0.00","0.00"
"20:59:56","76.6","72.2","86.3","29.84","167","0","0","0.00","0.00"
"21:04:58","76.6","72.4","87","29.83","167","0","0","0.00","0.00"
"21:09:57","76.5","72.3","87","29.83","167","0","0","0.00","0.00"
"21:14:57","76.4","72.2","87","29.83","167","0","0","0.00","0.00"
"21:19:56","76.4","72.3","87.4","29.83","167","0","0","0.00","0.00"
"21:24:59","76.3","72.5","88","29.83","167","0","0","0.00","0.00"
"21:29:58","76.3","72.5","88","29.83","167","0","0","0.00","0.00"
"21:34:57","76.3","72.5","88","29.83","167","0","0","0.00","0.00"
"21:39:58","76.2","72.4","88","29.83","167","0","0","0.00","0.00"
"21:44:57","76.1","72.3","88","29.83","167","0","0","0.00","0.00"
"21:49:57","76","72.2","88","29.83","167","0","0","0.00","0.00"
"21:54:56","75.9","72.1","88","29.83","167","0","0","0.00","0.00"
"21:59:59","75.8","72.3","89","29.83","167","0","0","0.00","0.00"
"22:04:59","75.8","72.3","89","29.83","167","0","0","0.00","0.00"
"22:09:58","75.7","72.2","89","29.83","167","0","0","0.00","0.00"
"22:14:58","75.7","72.2","89","29.83","167","0","0","0.00","0.00"
"22:19:58","75.7","72.2","89","29.83","167","0","0","0.00","0.00"
"22:24:57","75.7","72.3","89.2","29.83","167","0","0","0.00","0.00"
"22:29:56","75.6","72.5","90","29.83","167","0","0","0.00","0.00"
"22:34:59","75.6","72.5","90","29.83","183","0.3","3.6","0.00","0.00"
"22:39:59","75.5","72.4","90","29.83","183","0.2","3.5","0.00","0.00"
"22:44:59","75.5","72.4","90","29.83","168","0.7","3.6","0.00","0.00"
"22:49:58","75.5","72.4","90","29.83","167","1.3","2.4","0.00","0.00"
"22:54:57","75.5","72.4","90","29.83","167","0.9","3.6","0.00","0.00"
"22:59:56","75.5","72.4","90","29.83","167","0.9","4.8","0.00","0.00"
"23:04:56","75.5","72.4","90","29.83","168","1.8","4.6","0.00","0.00"
"23:09:59","75.5","72.7","91","29.83","168","1.1","3.6","0.00","0.00"
"23:14:59","75.4","72.6","91","29.83","168","0.7","3.5","0.00","0.00"
"23:19:58","75.4","72.6","91","29.83","168","0.8","2.4","0.00","0.00"
"23:24:57","75.3","72.5","91","29.83","168","0.6","2.4","0.00","0.00"
"23:29:56","75.2","72.4","91","29.83","168","1.3","3.6","0.00","0.00"
"23:34:58","75.2","72.6","91.8","29.83","168","0.7","3.5","0.00","0.00"
"23:39:58","75.1","72.6","92","29.83","168","0.9","3.6","0.00","0.00"
